This is the latest recevied weather packets stored in our database for station/object KE4AMH. If no packets are shown the sender has not sent any weather packets the latest 10 day(s).
| Time | Temp. | Humidity | Pressure | Rain* | Wind** | Luminosity | Snow |
|---|---|---|---|---|---|---|---|
| 1778077133 | 20.56° C | 80% | 1014.4 hPa | 0 mm | - | 170 W/m² | - |
| 1778076831 | 20° C | 80% | 1014.5 hPa | 0 mm | - | 168 W/m² | - |
| 1778076529 | 20° C | 80% | 1014.6 hPa | 0 mm | - | 159 W/m² | - |
| 1778076225 | 20° C | 80% | 1014.6 hPa | 0 mm | - | 98 W/m² | - |
| 1778075922 | 20° C | 80% | 1014.5 hPa | 0 mm | - | 103 W/m² | - |
| 1778075619 | 20° C | 80% | 1014.3 hPa | 0 mm | - | 99 W/m² | - |
| 1778075315 | 20.56° C | 79% | 1014.5 hPa | 0 mm | - | 122 W/m² | - |
| 1778075012 | 20° C | 79% | 1014.4 hPa | 0 mm | - | 146 W/m² | - |
| 1778074709 | 20° C | 79% | 1014.5 hPa | 0 mm | - | 131 W/m² | - |
| 1778074405 | 20° C | 80% | 1014.4 hPa | 0 mm | - | 122 W/m² | - |
| 1778074102 | 20° C | 79% | 1014.7 hPa | 0 mm | - | 91 W/m² | - |
| 1778073800 | 20° C | 79% | 1014.5 hPa | 0 mm | - | 82 W/m² | - |
| 1778073497 | 20° C | 79% | 1014.5 hPa | 0 mm | - | 97 W/m² | - |
| 1778073193 | 19.44° C | 79% | 1014.4 hPa | 0 mm | - | 97 W/m² | - |
| 1778072891 | 19.44° C | 80% | 1014.4 hPa | 0 mm | - | 98 W/m² | - |
| 1778072587 | 19.44° C | 79% | 1014.2 hPa | 0 mm | - | 67 W/m² | - |
| 1778072285 | 18.89° C | 79% | 1014.6 hPa | 0 mm | - | 59 W/m² | - |
| 1778071983 | 18.89° C | 79% | 1014.9 hPa | 0 mm | - | 70 W/m² | - |
| 1778071681 | 18.89° C | 79% | 1014.8 hPa | 0 mm | - | 38 W/m² | - |
| 1778071378 | 18.89° C | 78% | 1015 hPa | 0 mm | - | 33 W/m² | - |
| 1778071075 | 18.89° C | 77% | 1014.7 hPa | 0 mm | - | 55 W/m² | - |
| 1778070774 | 18.89° C | 78% | 1014.7 hPa | 0 mm | - | 50 W/m² | - |
| 1778070470 | 18.89° C | 77% | 1014.7 hPa | 0 mm | - | 39 W/m² | - |
| 1778070167 | 18.89° C | 77% | 1014.5 hPa | 0 mm | - | 66 W/m² | - |
| 1778069866 | 18.89° C | 77% | 1014.6 hPa | 0 mm | - | 27 W/m² | - |
* Rain latest hour (hover to see other rain measurements)
** Current wind speed in m/s (hover to see current wind gust speed)